Location: Oshawa
(43.9000°N, 78.8670°W)
Time: 05:49:33
(UTC-04:00)

Cosmos 1821 Rocket - Visible Passes

Search period start: 23 October 2017 00:00
Search period end: 02 November 2017 00:00
Orbit: 946 x 1004 km, 82.9° (Epoch: 22 October)

Date Brightness Start Highest point End Pass type
(mag) Time Alt. Az. Time Alt. Az. Time Alt. Az.
23 Oct 6.1 05:41:41 10° NNE 05:47:08 28° ENE 05:52:32 10° SE visible
23 Oct 4.1 19:12:21 10° SSE 19:18:20 54° E 19:24:26 10° NNE visible
23 Oct 6.0 20:59:03 10° WSW 21:04:04 25° WNW 21:09:11 10° NNW visible
24 Oct 5.1 06:06:31 10° N 06:12:42 48° ENE 06:18:50 10° SSE visible
24 Oct 4.0 19:37:19 10° S 19:43:31 87° W 19:49:52 10° N visible
24 Oct 6.7 21:26:34 10° W 21:29:54 15° WNW 21:33:16 10° NNW visible
25 Oct 6.9 04:48:23 10° NNE 04:51:41 14° ENE 04:54:58 10° E visible
25 Oct 4.2 06:31:40 10° N 06:38:06 83° E 06:44:30 10° S visible
25 Oct 4.9 20:02:55 10° SSW 20:08:54 50° WNW 20:15:03 10° N visible
26 Oct 6.2 05:12:24 10° NNE 05:17:32 25° ENE 05:22:37 10° ESE visible
26 Oct 4.1 06:57:04 10° NNW 07:03:19 58° W 07:09:33 10° S visible
26 Oct 4.3 18:43:02 10° SSE 18:48:53 46° E 18:54:52 10° NNE visible
26 Oct 5.9 20:29:08 10° SW 20:34:28 29° WNW 20:39:55 10° N visible
27 Oct 5.3 05:37:08 10° N 05:43:10 42° ENE 05:49:10 10° SE visible
27 Oct 4.0 19:07:50 10° S 19:14:02 81° E 19:20:23 10° N visible
27 Oct 6.6 20:56:17 10° WSW 21:00:14 17° WNW 21:04:15 10° NNW visible
28 Oct 6.9 04:19:36 10° NE 04:22:01 12° ENE 04:24:25 10° E visible
28 Oct 4.3 06:02:11 10° N 06:08:37 72° E 06:14:59 10° SSE visible
28 Oct 4.6 19:33:15 10° SSW 19:39:22 59° WNW 19:45:38 10° N visible
29 Oct 6.3 04:43:10 10° NNE 04:47:55 21° ENE 04:52:38 10° ESE visible
29 Oct 4.0 06:27:31 10° NNW 06:33:54 67° W 06:40:11 10° S visible
29 Oct 5.7 19:59:17 10° SW 20:04:53 34° WNW 20:10:35 10° N visible
30 Oct 5.5 05:07:45 10° N 05:13:37 36° ENE 05:19:24 10° SE visible
30 Oct 4.5 06:53:09 10° NNW 06:58:59 38° W 07:04:47 10° SSW visible
30 Oct 4.0 18:38:23 10° S 18:44:34 70° E 18:50:52 10° NNE visible
30 Oct 6.5 20:26:07 10° WSW 20:30:35 20° WNW 20:35:08 10° NNW visible
31 Oct 7.0 03:51:44 10° NE 03:52:19 10° ENE 03:52:55 10° ENE visible
31 Oct 4.5 05:32:45 10° N 05:39:06 62° ENE 05:45:24 10° SSE visible
31 Oct 5.1 07:19:12 10° NW 07:23:54 22° W 07:28:35 10° SW visible
31 Oct 4.4 19:03:38 10° SSW 19:09:50 69° W 19:16:11 10° N visible
31 Oct 6.9 20:54:40 10° WNW 20:56:31 11° WNW 20:58:23 10° NW visible
01 Nov 6.4 04:13:59 10° NNE 04:18:17 18° ENE 04:22:34 10° ESE visible
01 Nov 3.9 05:58:01 10° N 06:04:26 78° W 06:10:46 10° S visible
01 Nov 5.4 19:29:29 10° SW 19:35:18 40° WNW 19:41:14 10° N visible
